Regional Weather Roundup
Issued by NWS Burlington, VT

Home | Current Version | Previous Version | Text Only | Print | Product List | Glossary On
Versions: 1 2 3 4 5 6 7 8 9 10 11 12 13 14 15 16 17 18 19 20 21 22 23 24 25 26 27 28 29 30 31 32 33 34 35 36 37 38 39 40 41 42 43 44 45 46 47 48 49 50
000
ASUS41 KBTV 140530
RWRBTV
VERMONT REGIONAL WEATHER ROUNDUP
NATIONAL WEATHER SERVICE BURLINGTON VT
1200 AM EST THU DEC 14 2017

NOTE: "FAIR" INDICATES FEW OR NO CLOUDS BELOW 12,000 FEET WITH NO
SIGNIFICANT WEATHER AND/OR OBSTRUCTIONS TO VISIBILITY.

* THESE REPORTS ARE NOT UNDER NWS QUALITY CONTROL AND/OR DO NOT
  REPORT WEATHER SUCH AS PRECIPITATION AND FOG.

VTZ001>019-140600-
_____VERMONT_____


CITY           SKY/WX    TMP DP  RH WIND       PRES   REMARKS
BURLINGTON     CLEAR     12   0  58 NW7       29.53R WCI   1
MONTPELIER     CLEAR      9   1  70 CALM      29.47R
MORRISVILLE    CLEAR      6  -1  73 S7        29.48R WCI  -6
ST. JOHNSBURY*   N/A      8   3  80 MISG      29.44R
LYNDONVILLE*   FAIR       6   0  76 SW9G17    29.43R WCI  -8
MIDDLEBURY*    FAIR       9   4  80 S3        29.54R
RUTLAND*       CLOUDY     9   6  88 VRB3      29.53R
HIGHGATE*      FAIR       7  -2  66 W3        29.55R
NEWPORT*       FAIR       4  -5  68 SW7       29.45R WCI  -8
BENNINGTON     CLOUDY    16   6  65 S3        29.55R
SUTTON*          N/A      5 N/A N/A MISG        N/A
ISLAND POND*     N/A      5 N/A N/A W7          N/A  WCI  -7
GALLUP MILLS*    N/A      5 N/A N/A MISG        N/A
UNION VILLAGE*   N/A      3 N/A N/A MISG        N/A
MT. MANSFIELD*   N/A      0 N/A N/A CALM        N/A

_____LAKE CHAMPLAIN_____


CITY           SKY/WX    TMP DP  RH WIND       PRES   REMARKS
BURTON ISLAND*   N/A     16   7  67 N6G13       N/A  WCI   7
COLCHESTER RF*   N/A     14   5  67 W16G22      N/A  WCI  -2

$$

NYZ007-026>031-035-052-083-087-140600-
_____NORTHERN NEW YORK_____


CITY           SKY/WX    TMP DP  RH WIND       PRES   REMARKS
PLATTSBURGH    CLEAR      9  -4  55 MISG      29.54R
SARANAC LAKE   CLOUDY     0  -4  83 SW5       29.43R WCI -10
MASSENA        CLOUDY     5  -3  69 W8        29.61S WCI  -8
OGDENSBURG*    FAIR       5  -2  75 W6        29.61S WCI  -6
POTSDAM*       CLOUDY     0  -6  78 W7        29.59R WCI -13
WATERTOWN      CLOUDY     7   3  84 NE3       29.61S
FT DRUM        CLEAR      7   0  75 N3        29.57R
ALBANY         MOCLDY    19   6  57 SW10      29.61S WCI   7
GLENS FALLS    CLOUDY     9   3  77 W3        29.58R

$$
NHZ002-005-011-140600-
_____NEW HAMPSHIRE_____


CITY           SKY/WX    TMP DP  RH WIND       PRES   REMARKS
LEBANON        CLOUDY    11   3  70 S5        29.49R WCI   3
KEENE          CLOUDY    17  10  74 W8G17     29.54R WCI   7
MT WASHINGTON  BLWGSNOW -11 -11 100 W79G100     N/A  VSB 0   WCI -53
PLYMOUTH       FAIR      11   4  72 NW6       29.48R WCI   2
WHITEFIELD     CLOUDY     9   4  80 SW6       29.41R WCI  -1

$$

_____REGIONAL QUEBEC LOCATIONS_____


CITY           SKY/WX    TMP DP  RH WIND       PRES   REMARKS
MONTREAL       PTCLDY     3  -4  72 SW20      29.52R WCI -18
QUEBEC CITY    PTCLDY     5  -4  66 W18G28    29.27R WCI -15
SHERBROOKE     CLOUDY     5  -2  72 W15G23    29.38R WCI -13

_____REGIONAL ONTARIO LOCATIONS_____


CITY           SKY/WX    TMP DP  RH WIND       PRES   REMARKS
OTTAWA         CLEAR      1  -6  71 NW16      29.58S WCI -18

______KEY______
VSB  - VISIBILITY IN MILES
WCI  - WIND CHILL INDEX
HX   - HEAT INDEX
$$
NNNN




USA.gov is the U.S. government's official web portal to all federal, state and local government web resources and services.